Location: Olsztyn
(53.7767°N, 20.4765°E)
Time: 18:55:56
(UTC+02:00)

Transit 4A - Pass Details

Date: 06 October 2022
Orbit: 862 x 982 km, 66.8° (Epoch: 20 September)

Event Time Altitude Azimuth Distance (km) Brightness Sun altitude
Exits shadow 00:54:50 25° 12° (NNE) 1,734 9.7 -40.9°
Drops below altitude 10° 00:57:54 10° 38° (NE) 2,550 10.7 -40.8°
Sets 01:00:40 0° 49° (NE) 3,477 11.5 -40.7°
